Regional Weather Roundup
Issued by NWS

Home | Current Version | Previous Version | Text Only | Print | Product List | Glossary Off
Versions: 1 2 3 4 5 6 7 8 9 10 11 12 13 14 15 16 17 18 19 20 21 22 23 24 25 26 27 28 29 30 31 32 33 34 35 36 37 38 39 40 41 42 43 44 45 46 47 48 49 50

000
ASUS45 KABQ 261610
RWRNM
WEATHER ROUNDUP FOR NEW MEXICO
NATIONAL WEATHER SERVICE ALBUQUERQUE NM
1000 AM MDT SUN APR 26 2015

NOTE: "FAIR" MEANS FEW OR NO CLOUDS BELOW 12,000 FEET AGL WITH NO
       SIGNIFICANT WEATHER OR OBSTRUCTIONS TO VISION.

      THIS PRODUCT IS RELEASED AS TWO VERSIONS.  ONE VERSION NEAR
      THE TOP OF THE HOUR CONTAINING PRELIMINARY DATA FROM ALBUQUERQUE
      AND OTHER STATIONS.  A FINAL VERSION WITH ADDITIONAL DATA IS
      ISSUED ABOUT 10 MINUTES AFTER THE HOUR.

NMZ501-503-504-510>518-261700-
NORTHWEST PLATEAU/NORTHCENTRAL MOUNTAINS

CITY           SKY/WX    TMP DP  RH WIND       PRES   REMARKS
FARMINGTON     CLOUDY    46  38  73 VRB3      29.75S
LOS ALAMOS     SNOW      33  33 100 SW9G16    29.82S VSB 1/2 WCI  25
SANTA FE       LGT SNOW  35  33  92 CALM      29.81R
TAOS           CLOUDY    46  28  49 CALM      29.78F
ANGEL FIRE     LGT RAIN  38  31  75 CALM      29.83S

$$
NMZ402-403-502-505>509-261700-
WESTCENTRAL MOUNTAINS/SOUTHWEST MOUNTAINS

CITY           SKY/WX    TMP DP  RH WIND       PRES   REMARKS
GALLUP         LGT RAIN  40  36  86 S10       29.79S WCI  33
GRANTS         DRIZZLE   41  37  83 NE6       29.79R
SILVER CITY      N/A     41  37  87 NW10      29.85F

$$
NMZ407-409-411-412-261700-
SOUTHERN DESERTS

CITY           SKY/WX    TMP DP  RH WIND       PRES   REMARKS
LORDSBURG      CLOUDY    45  41  87 W14G26    29.86R
DEMING         CLOUDY    44  42  93 SW9       29.85F
LAS CRUCES     CLOUDY    47  36  66 W33G43    29.86R
HOLLOMAN AFB   PTSUNNY   63  27  25 SW21      29.74F
ALAMOGORDO     PTSUNNY   61  27  27 S16       29.76F
T OR C         LGT RAIN  51  35  54 W15       29.77R

$$
NMZ519>523-261700-
CENTRAL VALLEYS/CENTRAL HIGHLANDS

CITY           SKY/WX    TMP DP  RH WIND       PRES   REMARKS
ALBUQUERQUE    PTSUNNY   48  39  71 NE7       29.77F
DOUBLE EAGLE   CLOUDY    45  37  76 SW8       29.77F
MORIARTY ARPT  FAIR      45  39  81 NW7       29.78F
CLINES CORNERS CLOUDY    43  34  70 NW10      29.78R
BELEN          CLOUDY    50  42  72 NE5       29.76S
SOCORRO        CLOUDY    56  31  39 NW7       29.72S

$$
NMZ524>526-539-540-261700-
SOUTHCENTRAL MOUNTAINS

CITY           SKY/WX    TMP DP  RH WIND       PRES   REMARKS
RUIDOSO        PTSUNNY   50  25  37 W21G36    29.81F

$$
NMZ527>531-261700-
NORTHEAST HIGHLANDS/NORTHEAST PLAINS

CITY           SKY/WX    TMP DP  RH WIND       PRES   REMARKS
LAS VEGAS      CLOUDY    54  27  35 SW15G22   29.77F
RATON          CLOUDY    52  28  39 NE9       29.77F
CLAYTON        CLOUDY    54  44  69 E14       29.78S

$$
NMZ532>537-261700-
EASTCENTRAL PLAINS

CITY           SKY/WX    TMP DP  RH WIND       PRES   REMARKS
TUCUMCARI      CLOUDY    67  26  21 SW6       29.71F
CANNON AFB     CLOUDY    65  27  23 SW8       29.74S
CLOVIS AIRPORT CLOUDY    66  28  24 W13       29.74S

$$
NMZ028-029-538-261700-
SOUTHEAST PLAINS

CITY           SKY/WX    TMP DP  RH WIND       PRES   REMARKS
ROSWELL        PTSUNNY   71  26  18 SW10G17   29.70F
ARTESIA        MOSUNNY   72  27  18 SW20G28   29.74S
CARLSBAD       MOSUNNY   73  30  20 E8        29.70F
HOBBS          SUNNY     70  28  21 SW12      29.75F


$$



USA.gov is the U.S. government's official web portal to all federal, state and local government web resources and services.